Skip Page Navigation
NASA JPL Caltech
NASA Logo - Jet Propulsion Laboratory + View the NASA Portal
+ Center for Near-Earth Object Studies
JPL Home Earth Solar System Stars & Galaxies Technology
JPL Solar System Dynamics
BODIES ORBITS EPHEMERIDES TOOLS PHYSICAL DATA DISCOVERY FAQ SITE MAP
JPL Small-Body Database Browser
Search: [ help ]  
55083 (2001 QV110)
Classification: Main-belt Asteroid          SPK-ID: 2055083
Ephemeris | Orbit Diagram | Orbital Elements | Mission Design | Physical Parameters | Discovery Circumstances | Close-Approach Data ]

[ hide orbit diagram ]

For accurate long-term ephemerides, please instead use our Horizons system.This orbit viewer was implemented using two-body methods, and hence should not be used for determining accurate long-term trajectories (over several years or decades) or planetary encounter circumstances.


[ revert to old Java-based viewer ]

Orbital Elements at Epoch 2459000.5 (2020-May-31.0) TDB
Reference: JPL 24 (heliocentric ecliptic J2000)
 Element Value Uncertainty (1-sigma)   Units 
e .1030544626949795 4.9759e-08  
a 2.987683786437533 1.6324e-08 au
q 2.679789639123712 1.451e-07 au
i 7.714432696623994 4.7424e-06 deg
node 239.8691550713582 2.7938e-05 deg
peri 120.1398713761612 3.4664e-05 deg
M 211.2379366320658 2.2912e-05 deg
tp 2459779.953237061364
(2022-Jul-19.45323706)
0.00012327 TDB
period 1886.254862222993
5.16
1.5459e-05
4.232e-08
d
yr
n .1908543788063359 1.5642e-09 deg/d
Q 3.295577933751355 1.8006e-08 au
  Orbit Determination Parameters
   # obs. used (total)      1193  
   data-arc span      9530 days (26.09 yr)  
   first obs. used      1994-04-16  
   last obs. used      2020-05-19  
   planetary ephem.      DE431  
   SB-pert. ephem.      SB431-N16  
   condition code      0  
   norm. resid. RMS      .52421  
   source      ORB  
   producer      Otto Matic  
   solution date      2020-Nov-12 23:05:16  

Additional Information
 Earth MOID = 1.68771 au 
 Jupiter MOID = 2.19333 au 
 T_jup = 3.235 
[ show covariance matrix ]

Ephemeris | Orbit Diagram | Orbital Elements | Mission Design | Physical Parameters | Discovery Circumstances | Close-Approach Data ]

Physical Parameter Table
Parameter Symbol Value Units Sigma Reference Notes
absolute magnitude H 14.1   n/a MPO468437  
diameter diameter 5.670 km 0.633 urn:nasa:pds:neowise_diameters_albedos::2.0[mainbelt] (http://adsabs.harvard.edu/abs/2011ApJ...741...68M)  
geometric albedo albedo 0.105   0.019 urn:nasa:pds:neowise_diameters_albedos::2.0[mainbelt] (http://adsabs.harvard.edu/abs/2011ApJ...741...68M)  

55083 (2001 QV110)          Discovered 2001-Aug-24 by Kusnirak, P., Pravec, P. at Ondrejov
Reference: 20030216/Numbers.arcLast Updated: 2004-04-19

[ show close-approach data ]
Alternate Designations
 2001 QV110 = 1996 TN66 = 2000 KW27 = 2001 QZ323 
Ephemeris | Orbit Diagram | Orbital Elements | Mission Design | Physical Parameters | Discovery Circumstances | Close-Approach Data ]
ABOUT SSD CREDITS/AWARDS PRIVACY/COPYRIGHT GLOSSARY LINKS
FirstGov 2020-Nov-30 00:45 UT
(server date/time)  
NASA Home Page
Site Manager:   Ryan S. Park
Webmaster  Alan B. Chamberlin